When you browse on this site, cookies collect data to enhance your experience and personalize the content and advertising you see.
Visit our Privacy Policy to learn more. By continuing to use the site, you agree to this use of cookies and data.
  • In United Kingdom
  • List of Countries
  • For 7 days
  • Water Temperature
  • Weather Map
  • Weather Widgets
  • user-avatar
    Login

    Hourly Weather Abergavenny

    Today, 21 August, Wednesday

    Time Temperature Precipitation Wind Pressure Humidity
    00:00 +11°C° 0 mm 3 mps 753 mmHg 96%
    01:00 +11°C° 0 mm 3 mps 753 mmHg 96%
    02:00 +12°C° 0 mm 2 mps 753 mmHg 96%
    03:00 +12°C° 0 mm 2 mps 753 mmHg 96%
    04:00 +12°C° 0 mm 2 mps 753 mmHg 96%
    05:00 +12°C° 0 mm 2 mps 753 mmHg 96%
    06:00 +12°C° 0 mm 2 mps 753 mmHg 97%
    07:00 +13°C° 0 mm 3 mps 753 mmHg 92%
    08:00 +14°C° 0 mm 3 mps 753 mmHg 87%
    09:00 +17°C° 0 mm 4 mps 753 mmHg 83%
    10:00 +17°C° 0.1 mm 4 mps 753 mmHg 78%
    11:00 +17°C° 0.1 mm 5 mps 753 mmHg 74%
    12:00 +17°C° 0.1 mm 5 mps 753 mmHg 70%
    13:00 +19°C° 0 mm 5 mps 753 mmHg 70%
    14:00 +19°C° 0 mm 5 mps 753 mmHg 69%
    15:00 +19°C° 0 mm 6 mps 752 mmHg 69%
    16:00 +17°C° 0.1 mm 5 mps 752 mmHg 73%
    17:00 +16°C° 0.1 mm 5 mps 752 mmHg 76%
    18:00 +15°C° 0.1 mm 5 mps 752 mmHg 80%
    19:00 +14°C° 0 mm 4 mps 752 mmHg 83%
    20:00 +13°C° 0 mm 4 mps 752 mmHg 86%
    21:00 +12°C° 0 mm 4 mps 752 mmHg 90%
    22:00 +12°C° 0 mm 4 mps 752 mmHg 90%
    23:00 +12°C° 0 mm 4 mps 752 mmHg 91%

    Tomorrow, 22 August, Thursday

    Time Temperature Precipitation Wind Pressure Humidity
    00:00 +12°C° 0 mm 4 mps 752 mmHg 91%
    01:00 +12°C° 0 mm 4 mps 751 mmHg 92%
    02:00 +12°C° 0 mm 4 mps 751 mmHg 93%
    03:00 +12°C° 0 mm 4 mps 751 mmHg 94%
    04:00 +12°C° 0 mm 4 mps 751 mmHg 93%
    05:00 +13°C° 0 mm 4 mps 751 mmHg 93%
    06:00 +13°C° 0 mm 4 mps 751 mmHg 92%
    07:00 +14°C° 0 mm 5 mps 751 mmHg 90%
    08:00 +15°C° 0 mm 5 mps 752 mmHg 88%
    09:00 +16°C° 0 mm 6 mps 752 mmHg 86%
    10:00 +17°C° 0.1 mm 6 mps 752 mmHg 83%
    11:00 +17°C° 0.1 mm 6 mps 752 mmHg 81%
    12:00 +19°C° 0.1 mm 6 mps 752 mmHg 79%
    13:00 +19°C° 0.1 mm 6 mps 752 mmHg 78%
    14:00 +19°C° 0.1 mm 6 mps 752 mmHg 77%
    15:00 +19°C° 0.1 mm 6 mps 752 mmHg 77%
    16:00 +19°C° 0 mm 5 mps 752 mmHg 79%
    17:00 +17°C° 0 mm 5 mps 751 mmHg 82%
    18:00 +18°C° 0 mm 4 mps 751 mmHg 85%
    19:00 +17°C° 0 mm 4 mps 752 mmHg 88%
    20:00 +16°C° 0 mm 3 mps 752 mmHg 92%
    21:00 +15°C° 0 mm 2 mps 752 mmHg 96%
    22:00 +15°C° 0 mm 2 mps 752 mmHg 96%
    23:00 +15°C° 0 mm 2 mps 752 mmHg 96%

    Day after tomorrow, 23 August, Friday

    Time Temperature Precipitation Wind Pressure Humidity
    00:00 +15°C° 0 mm 2 mps 752 mmHg 96%
    01:00 +14°C° 0 mm 2 mps 752 mmHg 96%
    02:00 +14°C° 0 mm 2 mps 752 mmHg 96%
    03:00 +14°C° 0 mm 2 mps 751 mmHg 97%
    04:00 +15°C° 0 mm 1 mps 752 mmHg 96%
    05:00 +15°C° 0 mm 1 mps 752 mmHg 96%
    06:00 +15°C° 0 mm 1 mps 752 mmHg 95%
    07:00 +16°C° 0 mm 1 mps 752 mmHg 91%
    08:00 +18°C° 0 mm 1 mps 752 mmHg 86%
    09:00 +19°C° 0 mm 1 mps 752 mmHg 82%
    10:00 +20°C° 0 mm 1 mps 752 mmHg 79%
    11:00 +20°C° 0 mm 1 mps 752 mmHg 76%
    12:00 +21°C° 0 mm 1 mps 752 mmHg 73%
    13:00 +22°C° 0 mm 1 mps 752 mmHg 72%
    14:00 +21°C° 0 mm 2 mps 751 mmHg 70%
    15:00 +23°C° 0 mm 2 mps 751 mmHg 68%
    16:00 +21°C° 0 mm 2 mps 751 mmHg 71%
    17:00 +22°C° 0 mm 1 mps 751 mmHg 73%
    18:00 +22°C° 0 mm 1 mps 750 mmHg 76%
    19:00 +20°C° 0 mm 1 mps 750 mmHg 79%
    20:00 +19°C° 0 mm 1 mps 750 mmHg 83%
    21:00 +16°C° 0 mm 1 mps 750 mmHg 86%
    22:00 +15°C° 0 mm 1 mps 750 mmHg 85%
    23:00 +15°C° 0 mm 1 mps 750 mmHg 85%

    24 August, Saturday

    Time Temperature Precipitation Wind Pressure Humidity
    00:00 +14°C° 0 mm 1 mps 749 mmHg 84%
    01:00 +14°C° 0 mm 1 mps 749 mmHg 83%
    02:00 +13°C° 0 mm 1 mps 749 mmHg 82%
    03:00 +13°C° 0 mm 1 mps 749 mmHg 80%
    04:00 +13°C° 0 mm 1 mps 748 mmHg 79%
    05:00 +13°C° 0 mm 1 mps 748 mmHg 78%
    06:00 +13°C° 0 mm 1 mps 748 mmHg 77%
    07:00 +14°C° 0 mm 1 mps 748 mmHg 72%
    08:00 +16°C° 0 mm 1 mps 748 mmHg 67%
    09:00 +19°C° 0 mm 1 mps 748 mmHg 62%
    10:00 +19°C° 0 mm 2 mps 748 mmHg 62%
    11:00 +21°C° 0 mm 3 mps 748 mmHg 62%
    12:00 +22°C° 0 mm 3 mps 747 mmHg 62%
    13:00 +23°C° 0 mm 4 mps 747 mmHg 61%
    14:00 +23°C° 0 mm 4 mps 747 mmHg 61%
    15:00 +25°C° 0 mm 4 mps 747 mmHg 60%
    16:00 +24°C° 0 mm 3 mps 746 mmHg 65%
    17:00 +24°C° 0 mm 3 mps 746 mmHg 69%
    18:00 +23°C° 0 mm 2 mps 746 mmHg 74%
    19:00 +20°C° 0 mm 2 mps 746 mmHg 77%
    20:00 +19°C° 0 mm 2 mps 746 mmHg 79%
    21:00 +18°C° 0 mm 1 mps 746 mmHg 82%
    22:00 +18°C° 0 mm 1 mps 745 mmHg 82%
    23:00 +18°C° 0 mm 1 mps 745 mmHg 82%

    25 August, Sunday

    Time Temperature Precipitation Wind Pressure Humidity
    00:00 +16°C° 0 mm 1 mps 745 mmHg 81%
    01:00 +16°C° 0 mm 1 mps 744 mmHg 81%
    02:00 +16°C° 0 mm 1 mps 744 mmHg 81%
    03:00 +16°C° 0 mm 1 mps 744 mmHg 80%
    04:00 +16°C° 0 mm 1 mps 744 mmHg 81%
    05:00 +16°C° 0 mm 1 mps 744 mmHg 83%
    06:00 +16°C° 0 mm 1 mps 743 mmHg 84%
    07:00 +17°C° 0 mm 2 mps 744 mmHg 80%
    08:00 +19°C° 0 mm 2 mps 744 mmHg 77%
    09:00 +20°C° 0 mm 2 mps 744 mmHg 74%
    10:00 +21°C° 0 mm 2 mps 744 mmHg 72%
    11:00 +23°C° 0 mm 2 mps 744 mmHg 69%
    12:00 +24°C° 0 mm 3 mps 744 mmHg 67%
    13:00 +24°C° 0 mm 3 mps 744 mmHg 68%
    14:00 +24°C° 0 mm 3 mps 744 mmHg 69%
    15:00 +23°C° 0 mm 4 mps 744 mmHg 69%
    16:00 +22°C° 0 mm 4 mps 744 mmHg 73%
    17:00 +21°C° 0 mm 3 mps 744 mmHg 77%
    18:00 +20°C° 0 mm 3 mps 744 mmHg 81%
    19:00 +18°C° 0 mm 3 mps 744 mmHg 86%
    20:00 +17°C° 0 mm 3 mps 744 mmHg 90%
    21:00 +14°C° 0 mm 3 mps 744 mmHg 95%
    22:00 +14°C° 0 mm 3 mps 744 mmHg 94%
    23:00 +14°C° 0 mm 3 mps 744 mmHg 94%

    26 August, Monday

    Time Temperature Precipitation Wind Pressure Humidity
    00:00 +14°C° 0 mm 3 mps 744 mmHg 94%
    01:00 +14°C° 0 mm 3 mps 744 mmHg 93%
    02:00 +14°C° 0 mm 4 mps 744 mmHg 92%
    03:00 +14°C° 0 mm 4 mps 744 mmHg 91%
    04:00 +13°C° 0 mm 4 mps 744 mmHg 90%
    05:00 +13°C° 0 mm 4 mps 744 mmHg 88%
    06:00 +13°C° 0 mm 4 mps 745 mmHg 87%
    07:00 +14°C° 0 mm 4 mps 745 mmHg 87%
    08:00 +14°C° 0 mm 5 mps 745 mmHg 86%
    09:00 +15°C° 0 mm 6 mps 745 mmHg 85%
    10:00 +15°C° 0.1 mm 6 mps 745 mmHg 87%
    11:00 +16°C° 0.1 mm 5 mps 745 mmHg 88%
    12:00 +16°C° 0.1 mm 5 mps 746 mmHg 90%
    13:00 +17°C° 0.1 mm 5 mps 746 mmHg 88%
    14:00 +17°C° 0.1 mm 5 mps 746 mmHg 85%
    15:00 +19°C° 0.1 mm 5 mps 746 mmHg 83%
    16:00 +17°C° 0 mm 5 mps 747 mmHg 82%
    17:00 +17°C° 0 mm 4 mps 747 mmHg 82%
    18:00 +17°C° 0 mm 3 mps 747 mmHg 81%
    19:00 +14°C° 0 mm 3 mps 748 mmHg 84%
    20:00 +14°C° 0 mm 2 mps 749 mmHg 86%
    21:00 +13°C° 0 mm 2 mps 750 mmHg 89%
    22:00 +12°C° 0 mm 1 mps 750 mmHg 90%
    23:00 +12°C° 0 mm 1 mps 750 mmHg 91%
    Show more